This is the latest recevied weather packets stored in our database for station/object CALDNA-WX. If no packets are shown the sender has not sent any weather packets the latest 1 day(s).
| Time | Temp. | Humidity | Pressure | Rain* | Wind** | Luminosity | Snow |
|---|---|---|---|---|---|---|---|
| 1778097651 | 11.67° C | 34% | 985.4 hPa | 0 mm | - | - | - |
| 1778095843 | 11.67° C | 35% | 985.9 hPa | 0 mm | - | - | - |
| 1778094927 | 11.67° C | 35% | 985.9 hPa | 0 mm | - | - | - |
| 1778094046 | 11.67° C | 35% | 985.9 hPa | 0 mm | - | - | - |
| 1778092238 | 11.67° C | 34% | 985.7 hPa | 0 mm | - | - | - |
| 1778089524 | 11.67° C | 38% | 985.8 hPa | 0 mm | - | - | - |
| 1778088644 | 11.67° C | 35% | 986.4 hPa | 0 mm | - | - | - |
| 1778086851 | 11.67° C | 36% | 986.5 hPa | 0 mm | - | - | - |
| 1778083251 | 10.56° C | 40% | 985.8 hPa | 0 mm | - | - | - |
| 1778079654 | 8.89° C | 48% | 985.6 hPa | 0 mm | - | - | - |
| 1778078727 | 8.89° C | 53% | 985.8 hPa | 0 mm | - | - | - |
| 1778075123 | 7.22° C | 61% | 984.8 hPa | 0 mm | - | - | - |
| 1778074243 | 6.67° C | 61% | 984.8 hPa | 0 mm | - | - | - |
| 1778071527 | 5.56° C | 71% | 983.7 hPa | 0 mm | - | - | - |
| 1778070644 | 5° C | 71% | 983.7 hPa | 0 mm | - | - | - |
| 1778067926 | 3.89° C | 75% | 983.1 hPa | 0 mm | - | - | - |
| 1778066124 | 2.78° C | 74% | 983 hPa | 0 mm | - | - | - |
| 1778063441 | 2.78° C | 70% | 983 hPa | 0 mm | - | - | - |
| 1778059840 | 3.33° C | 67% | 982.3 hPa | 0 mm | - | - | - |
| 1778057124 | 3.89° C | 69% | 981.8 hPa | 0 mm | - | - | - |
| 1778056238 | 3.89° C | 70% | 982.3 hPa | 0 mm | - | - | - |
| 1778055323 | 3.89° C | 70% | 982.3 hPa | 0 mm | - | - | - |
| 1778054453 | 3.89° C | 70% | 982.3 hPa | 0 mm | - | - | - |
| 1778053523 | 4.44° C | 69% | 982.2 hPa | 0 mm | - | - | - |
| 1778052642 | 4.44° C | 69% | 982.2 hPa | 0 mm | - | - | - |
* Rain latest hour (hover to see other rain measurements)
** Current wind speed in m/s (hover to see current wind gust speed)